Current weather by "City, St" or "zip code"  
 

Current Conditions: Ponca City, Ponca City Municipal Airport, OK

Fair


64.0 F

Last Updated on Oct 31 2020, 12:53 pm CDT
Humidity: 43%
Wind Speed: S 11.5 G 21.9 mph
Barometer 30.02 in
Dewpoint: 41.0 F
Visibility: 10.00 mi
Precip: --
Heat Index: NA
Wind Chill: NA
Current conditions at:

Ponca City, Ponca City Municipal Airport, OK (KPNC)

Lat: 36.73056 Lon: 97.09972

Local Radar Image active severe weather and emergency alerts image image weather storm and storm spotter reports image weather observation monitoring service image
Local
Radar
Active
Alerts
Storm Reports Obs
Monitoring

Sign-up For Email & Text Message Weather Alert Notification Services



Advertise Here

Observation History for Ponca City, Ponca City Municipal Airport, OK


Time Wind
(mph)
Vis
(mi)
Weather Precip (in) Temperature (F) Relative
Humidity
Wind
Chill
(F)
Heat
Index
(F)
Pressure
Air Dwpt altimeter
(in)
sea level
(mb)
Rmks
12:53 pm CDT S 11.5 G 21.9 10.00 Fair -- 64.0 41.0 43% NA NA 30.02 1016.1
11:53 am CDT S 10.4 G 19.6 10.00 Fair -- 63.0 41.0 45% 62 NA 30.06 1017.5
10:53 am CDT S 15.0 G 21.9 10.00 Fair -- 58.0 39.9 51% 55 NA 30.08 1018.2
9:53 am CDT S 13.8 G 23.0 10.00 Fair -- 54.0 39.9 59% 50 NA 30.10 1018.9
8:53 am CDT S 11.5 G 19.6 10.00 Fair -- 50.0 39.0 66% 46 NA 30.11 1019.3
7:53 am CDT S 10.4 10.00 Fair -- 49.0 37.9 66% 45 NA 30.10 1019.2
6:53 am CDT S 9.2 10.00 Fair -- 49.0 37.9 66% 45 NA 30.11 1019.2
5:53 am CDT S 9.2 10.00 Fair -- 49.0 37.9 66% 45 NA 30.11 1019.0
4:53 am CDT S 6.9 10.00 Fair -- 50.0 37.9 63% 47 NA 30.10 1018.9
3:53 am CDT S 8.1 10.00 Fair -- 51.0 37.0 59% 48 NA 30.11 1019.2
2:53 am CDT S 6.9 10.00 Fair -- 51.0 36.0 56% 48 NA 30.13 1019.7
1:53 am CDT S 6.9 10.00 Fair -- 51.0 37.0 59% 48 NA 30.13 1019.9
12:53 am CDT S 6.9 10.00 Fair -- 53.0 37.9 57% 51 NA 30.14 1020.1
11:53 pm CDT S 9.2 10.00 Fair -- 53.0 39.0 59% 50 NA 30.16 1020.8
10:53 pm CDT SE 8.1 10.00 Fair -- 52.0 39.9 64% 49 NA 30.16 1021.2
9:53 pm CDT S 3.5 10.00 Fair -- 54.0 39.0 57% NA NA 30.16 1021.0
8:53 pm CDT S 5.8 10.00 Fair -- 55.0 39.9 57% 54 NA 30.16 1021.3
7:53 pm CDT N 0.0 10.00 Fair -- 58.0 39.9 51% NA NA 30.16 1021.3
6:53 pm CDT S 5.8 10.00 Fair -- 60.0 39.9 48% 60 NA 30.15 1020.9
5:53 pm CDT S 5.8 10.00 Fair -- 65.0 37.9 37% NA NA 30.15 1020.9
4:53 pm CDT S 5.8 10.00 Fair -- 67.0 37.9 35% NA NA 30.16 1021.1
3:53 pm CDT SW 9.2 10.00 Fair -- 68.0 37.0 32% NA NA 30.17 1021.5
2:53 pm CDT SW 5.8 10.00 Fair -- 67.0 37.9 35% NA NA 30.19 1022.2

Regional Weather Observation


Blackwell-Tonkawa Municipal Airport, OK (KBKN)

Fair
64.0 F

Winfield / Arkansas City, Strother Field, KS (KWLD)

Fair
67.0 F

Enid, Enid Woodring Regional Airport, OK (KWDG)

Partly Cloudy and Breezy
59.0 F

Stillwater, Stillwater Regional Airport, OK (KSWO)

Fair
66.0 F

McConnell Air Force Base, KS (KIAB)

Fair and Breezy
63.0 F

Vance Air Force Base / Enid, OK (KEND)

Fair and Breezy
60.0 F